DW4719 Vilanova I la Geltru ES current weather conditions

sailwx.info

Wind from 052 at 2 knots

Air temperature 21.1° C
Dewpoint 11.2° C

Last reported at 2017-Jul-26 06:09 UTC.
Time now 2017-Jul-26 06:35 UTC

Location: N 41°13' E 001°44'.
View on Google Maps.

See reports from other nearby stations

  
Tides and Currents Weather Stations Pressure Air Temp Water Temp Dewpoint Dewpoint Depression Visibility Wind Speed Wind Dir Waves Ship Positions
date/time (UTC)wind fromknots sea level pressurealtimeterstation pressurevisibilityair tempwater tempwave heightnotes
2017-Jul-26 06:09 052 2 21.1
2017-Jul-26 06:04 086 2 20.6
2017-Jul-26 05:59 035 3 20.6
2017-Jul-26 05:54 075 2 20.6
2017-Jul-26 05:49 058 2 20.6
2017-Jul-26 05:44 066 3 20.6
2017-Jul-26 05:39 024 4 20.0
2017-Jul-26 05:34 035 4 20.0
2017-Jul-26 05:29 051 4 20.0
2017-Jul-26 05:24 056 4 20.6
2017-Jul-26 05:19 095 4 20.6
2017-Jul-26 05:14 103 3 20.6
2017-Jul-26 05:09 095 3 20.6
2017-Jul-26 05:04 042 3 20.0
2017-Jul-26 04:59 072 3 20.0
2017-Jul-26 04:54 030 4 20.0
2017-Jul-26 04:49 085 4 20.0
2017-Jul-26 04:44 045 4 20.0
2017-Jul-26 04:39 027 2 20.6
2017-Jul-26 04:34 030 1 20.6
2017-Jul-26 04:29 354 1 20.6
2017-Jul-26 04:24 049 2 20.6
2017-Jul-26 04:19 360 2 20.6
2017-Jul-26 04:14 058 2 20.6
2017-Jul-26 04:09 047 1 20.6
2017-Jul-26 04:04 083 1 20.6
2017-Jul-26 03:59 051 1 20.6
2017-Jul-26 03:54 056 1 20.6
2017-Jul-26 03:49 082 1 20.6
2017-Jul-26 03:44 072 0 20.6
2017-Jul-26 03:39 027 20.6
2017-Jul-26 03:34 027 0 21.1
2017-Jul-26 03:29 016 21.1
2017-Jul-26 03:24 054 0 21.1
2017-Jul-26 03:19 064 1 21.1
2017-Jul-26 03:14 064 1 21.1
2017-Jul-26 03:09 069 1 21.1
2017-Jul-26 03:04 049 0 21.1
2017-Jul-26 02:59 102 21.7
2017-Jul-26 02:54 102 21.7
2017-Jul-26 02:49 102 21.7
2017-Jul-26 02:44 357 21.7
2017-Jul-26 02:39 357 0 21.7
2017-Jul-26 02:34 318 1 22.2
2017-Jul-26 02:29 298 2 22.2
2017-Jul-26 02:24 312 1 22.2
2017-Jul-26 02:19 311 0 22.2
2017-Jul-26 02:14 359 0 22.2
2017-Jul-26 02:09 014 1 22.2
2017-Jul-26 02:04 065 1 22.2
2017-Jul-26 01:59 326 0 22.2
2017-Jul-26 01:54 312 0 22.2
2017-Jul-26 01:49 040 1 22.8
2017-Jul-26 01:44 320 1 22.8
2017-Jul-26 01:39 313 2 22.2
2017-Jul-26 01:34 229 2 22.2
2017-Jul-26 01:29 308 1 22.2
2017-Jul-26 01:24 360 1 22.2
2017-Jul-26 01:19 011 1 22.2
2017-Jul-26 01:14 031 0 22.2
2017-Jul-26 01:09 006 0 22.2
2017-Jul-26 01:04 354 0 22.2
2017-Jul-26 00:59 349 1 22.2
2017-Jul-26 00:54 312 1 22.2
2017-Jul-26 00:49 318 1 22.2
2017-Jul-26 00:44 082 2 22.2
2017-Jul-26 00:39 328 1 22.2
2017-Jul-26 00:34 320 0 22.8
2017-Jul-26 00:29 312 0 22.8
2017-Jul-26 00:24 360 0 22.8
2017-Jul-26 00:19 027 0 22.8
2017-Jul-26 00:14 323 0 22.8
2017-Jul-26 00:09 306 0 22.8
2017-Jul-26 00:04 344 0 23.3
2017-Jul-25 23:59 008 0 23.3
2017-Jul-25 23:54 360 23.3
2017-Jul-25 23:49 340 0 23.3
2017-Jul-25 23:44 340 0 23.3
2017-Jul-25 23:39 007 0 23.3
2017-Jul-25 23:34 357 0 23.3
2017-Jul-25 23:29 343 0 23.3
2017-Jul-25 23:24 354 0 23.9
2017-Jul-25 23:19 360 23.9
2017-Jul-25 23:14 020 23.9
2017-Jul-25 23:09 020 23.9
2017-Jul-25 23:04 020 23.9
2017-Jul-25 22:59 360 23.9
2017-Jul-25 22:54 360 23.9
2017-Jul-25 22:49 360 0 23.9
2017-Jul-25 22:44 357 0 24.4
2017-Jul-25 22:39 360 0 24.4
2017-Jul-25 22:34 007 24.4
2017-Jul-25 22:29 357 24.4
2017-Jul-25 22:24 357 0 25.0
2017-Jul-25 22:19 011 0 25.0
2017-Jul-25 22:14 350 0 25.0
2017-Jul-25 22:09 277 1 25.0
2017-Jul-25 22:04 287 1 25.0
2017-Jul-25 21:59 265 2 25.0
2017-Jul-25 21:54 281 2 25.0
2017-Jul-25 21:49 246 2 25.0
2017-Jul-25 21:44 291 1 25.0
2017-Jul-25 21:39 264 1 25.0
2017-Jul-25 21:34 294 3 25.0
2017-Jul-25 21:29 247 3 25.0
2017-Jul-25 21:24 247 1 25.0
2017-Jul-25 21:19 271 25.0
2017-Jul-25 21:14 268 25.0
2017-Jul-25 21:09 268 25.0
2017-Jul-25 21:04 232 24.4
2017-Jul-25 20:59 232 0 24.4
2017-Jul-25 20:54 232 0 24.4
2017-Jul-25 20:49 124 25.0
2017-Jul-25 20:44 120 25.0
2017-Jul-25 20:39 107 25.0
2017-Jul-25 20:34 107 0 25.0
2017-Jul-25 20:29 107 0 25.0
2017-Jul-25 20:24 099 0 25.0
2017-Jul-25 20:19 099 0 25.0
2017-Jul-25 20:14 120 1 25.0
2017-Jul-25 20:09 112 1 25.0
2017-Jul-25 20:04 121 1 25.0
2017-Jul-25 19:59 134 1 25.0
2017-Jul-25 19:54 123 1 25.0
2017-Jul-25 19:49 137 2 25.0
2017-Jul-25 19:44 140 2 25.0
2017-Jul-25 19:39 104 3 25.0
2017-Jul-25 19:34 109 3 25.0
2017-Jul-25 19:29 128 2 25.0
2017-Jul-25 19:24 121 1 25.0
2017-Jul-25 19:19 210 1 25.0
2017-Jul-25 19:14 134 2 25.0
2017-Jul-25 19:09 150 3 25.0
2017-Jul-25 19:04 161 2 25.0
2017-Jul-25 18:59 155 2 25.0
2017-Jul-25 18:54 162 1 25.0
2017-Jul-25 18:49 188 2 25.0
2017-Jul-25 18:44 172 3 25.0
2017-Jul-25 18:39 199 2 25.0
2017-Jul-25 18:34 167 2 25.0
2017-Jul-25 18:29 184 3 25.0
2017-Jul-25 18:24 168 3 25.6
2017-Jul-25 18:19 160 4 25.6
2017-Jul-25 18:14 124 4 25.6
2017-Jul-25 18:09 102 4 25.6
2017-Jul-25 18:04 176 4 25.6
2017-Jul-25 17:59 233 3 25.6
2017-Jul-25 17:54 254 3 25.6
2017-Jul-25 17:49 181 4 25.6
2017-Jul-25 17:44 224 5 25.6
2017-Jul-25 17:39 154 6 25.6
2017-Jul-25 17:34 152 5 25.6
2017-Jul-25 17:29 150 4 26.1
2017-Jul-25 17:24 184 4 26.1
2017-Jul-25 17:19 143 4 26.1
2017-Jul-25 17:14 171 3 26.1
2017-Jul-25 17:09 216 4 26.1
2017-Jul-25 17:04 247 5 26.1
2017-Jul-25 16:59 224 4 26.1
2017-Jul-25 16:54 189 4 26.7
2017-Jul-25 16:49 128 5 26.7
2017-Jul-25 16:44 199 5 26.7
2017-Jul-25 16:39 188 5 26.7
2017-Jul-25 16:34 120 5 26.7
2017-Jul-25 16:29 188 5 26.7
2017-Jul-25 16:24 220 4 26.7
2017-Jul-25 16:19 215 3 27.2
2017-Jul-25 16:14 260 4 26.7
2017-Jul-25 16:09 123 5 26.7
2017-Jul-25 16:04 178 4 26.7
2017-Jul-25 15:59 239 4 26.7
2017-Jul-25 15:54 145 5 26.7
2017-Jul-25 15:49 158 4 26.7
2017-Jul-25 15:44 213 5 27.2
2017-Jul-25 15:39 172 5 26.7
2017-Jul-25 15:34 200 4 27.2
2017-Jul-25 15:29 199 4 27.2
2017-Jul-25 15:24 264 4 27.2
2017-Jul-25 15:19 230 6 26.7
2017-Jul-25 15:14 212 6 26.7
2017-Jul-25 15:09 227 5 26.7
2017-Jul-25 15:04 217 4 27.2
2017-Jul-25 14:59 205 5 27.2
2017-Jul-25 14:54 268 6 26.7
2017-Jul-25 14:49 198 6 26.7
2017-Jul-25 14:44 219 6 26.7
2017-Jul-25 14:39 209 5 27.2
2017-Jul-25 14:34 212 6 27.2
2017-Jul-25 14:29 264 5 27.2
2017-Jul-25 14:24 224 5 27.2
2017-Jul-25 14:19 198 5 27.2
2017-Jul-25 14:14 232 4 27.2
2017-Jul-25 14:09 209 4 27.2
2017-Jul-25 14:04 185 5 27.2
2017-Jul-25 13:59 302 4 27.2
2017-Jul-25 13:54 188 5 27.2
2017-Jul-25 13:49 237 5 27.2
2017-Jul-25 13:44 213 5 27.2
2017-Jul-25 13:39 208 5 27.2
2017-Jul-25 13:34 237 4 27.2
2017-Jul-25 13:29 224 5 27.2
2017-Jul-25 13:09 169 5 27.2
2017-Jul-25 13:04 179 5 27.2
2017-Jul-25 12:59 222 4 27.8
2017-Jul-25 12:54 184 3 27.8
2017-Jul-25 12:49 251 4 27.8
2017-Jul-25 12:44 260 4 27.2
2017-Jul-25 12:39 239 5 27.8
2017-Jul-25 12:34 261 5 27.2
2017-Jul-25 12:29 186 5 27.2
2017-Jul-25 12:24 179 5 27.8
2017-Jul-25 12:19 216 4 27.2
2017-Jul-25 12:14 184 3 27.8
2017-Jul-25 12:09 155 4 27.8
2017-Jul-25 12:04 256 4 27.2
2017-Jul-25 11:59 254 5 27.2
2017-Jul-25 11:54 175 4 27.2
2017-Jul-25 11:49 230 5 27.2
2017-Jul-25 11:44 257 6 27.2
2017-Jul-25 11:39 209 5 26.7
2017-Jul-25 11:34 186 4 26.7
2017-Jul-25 11:29 244 4 26.1
2017-Jul-25 11:24 209 4 26.1
2017-Jul-25 11:19 144 3 26.1
2017-Jul-25 11:14 148 3 26.1
2017-Jul-25 11:09 192 3 26.1
2017-Jul-25 11:04 168 3 26.1
2017-Jul-25 10:59 229 3 26.1
2017-Jul-25 10:54 154 4 26.1
2017-Jul-25 10:49 277 3 26.1
2017-Jul-25 10:44 178 3 26.1
2017-Jul-25 10:39 271 3 26.1
2017-Jul-25 10:18 288 2 27.2
2017-Jul-25 10:14 200 2 26.7
2017-Jul-25 10:09 247 2 26.7
2017-Jul-25 10:04 200 1 26.7
2017-Jul-25 09:59 208 0 26.1
2017-Jul-25 09:54 025 0 26.1
2017-Jul-25 09:49 352 1 25.6
2017-Jul-25 09:44 285 1 25.6
2017-Jul-25 09:39 260 1 25.6
2017-Jul-25 09:34 244 1 25.6
2017-Jul-25 09:29 265 2 25.6
2017-Jul-25 09:24 268 1 25.0
2017-Jul-25 09:19 261 1 25.0
2017-Jul-25 09:14 267 1 25.0
2017-Jul-25 09:09 312 1 25.0
2017-Jul-25 09:04 346 1 25.0
2017-Jul-25 08:59 312 0 24.4
2017-Jul-25 08:54 281 0 24.4
2017-Jul-25 08:49 096 23.9
2017-Jul-25 08:44 004 0 23.9
2017-Jul-25 08:39 076 1 23.9
2017-Jul-25 08:34 078 0 23.9
2017-Jul-25 08:29 349 1 23.3
2017-Jul-25 08:24 106 1 23.3
2017-Jul-25 08:19 359 1 23.3
2017-Jul-25 08:14 359 2 23.3
2017-Jul-25 08:09 360 2 23.3
2017-Jul-25 08:04 034 2 23.3
2017-Jul-25 07:59 017 2 23.3
2017-Jul-25 07:54 006 1 23.3
2017-Jul-25 07:49 360 1 23.3
2017-Jul-25 07:44 359 2 22.8
2017-Jul-25 07:39 356 2 22.8
2017-Jul-25 07:34 342 1 22.8
2017-Jul-25 07:29 088 1 22.8
2017-Jul-25 07:24 090 2 22.8
2017-Jul-25 07:19 072 3 22.8
2017-Jul-25 07:14 337 3 22.8
2017-Jul-25 07:09 034 2 22.8
2017-Jul-25 07:04 011 2 22.8
2017-Jul-25 06:59 360 1 22.8
2017-Jul-25 06:54 349 0 22.8
2017-Jul-25 06:49 121 0 22.8
2017-Jul-25 06:44 048 0 22.2
2017-Jul-25 06:39 092 0 22.2
2017-Jul-25 06:34 106 0 22.2
2017-Jul-25 06:29 360 1 22.2
2017-Jul-25 06:24 332 2 22.2
2017-Jul-25 06:19 056 2 22.2
2017-Jul-25 06:14 051 3 21.7
2017-Jul-25 06:09 102 3 21.7
2017-Jul-25 06:04 048 2 21.7
2017-Jul-25 05:59 051 2 21.7
2017-Jul-25 05:54 085 2 21.7
2017-Jul-25 05:49 068 2 21.7
2017-Jul-25 05:44 054 3 21.7
2017-Jul-25 05:39 096 3 21.7
2017-Jul-25 05:34 071 2 21.7
2017-Jul-25 05:29 072 2 21.7
2017-Jul-25 05:24 088 2 22.2
2017-Jul-25 05:19 072 1 22.2
2017-Jul-25 05:14 062 2 22.2
2017-Jul-25 05:09 072 2 22.2
2017-Jul-25 05:04 073 2 22.2
2017-Jul-25 04:59 071 2 22.2
2017-Jul-25 04:54 059 3 22.2
2017-Jul-25 04:49 030 3 22.2
2017-Jul-25 04:44 090 3 22.2
2017-Jul-25 04:39 035 3 22.2
2017-Jul-25 04:34 041 3 22.2
2017-Jul-25 04:29 032 2 22.2
2017-Jul-25 04:24 076 2 22.2
2017-Jul-25 04:19 030 1 22.2
2017-Jul-25 04:14 066 1 22.8
2017-Jul-25 04:09 083 1 22.8
2017-Jul-25 04:04 054 2 22.8
2017-Jul-25 03:59 037 1 22.8
2017-Jul-25 03:54 040 0 22.8
2017-Jul-25 03:49 040 0 22.8
2017-Jul-25 03:44 056 1 22.8
2017-Jul-25 03:39 092 2 22.8
2017-Jul-25 03:34 076 3 22.2
2017-Jul-25 03:29 034 2 22.2
2017-Jul-25 03:24 072 1 22.2
2017-Jul-25 03:19 078 1 22.2
2017-Jul-25 03:14 360 1 22.8
2017-Jul-25 03:09 071 1 22.8
2017-Jul-25 03:04 051 1 23.3
2017-Jul-25 02:59 092 0 23.3
2017-Jul-25 02:54 092 1 23.3
2017-Jul-25 02:49 099 1 23.3
2017-Jul-25 02:44 085 1 23.3
2017-Jul-25 02:39 075 2 23.3
2017-Jul-25 02:34 099 2 23.3
2017-Jul-25 02:29 097 3 23.3
2017-Jul-25 02:24 096 2 23.3
2017-Jul-25 02:19 116 1 22.8
2017-Jul-25 02:14 073 1 23.3
2017-Jul-25 02:09 093 2 23.3
2017-Jul-25 02:04 099 1 23.3
2017-Jul-25 01:59 131 0 23.3
2017-Jul-25 01:54 186 0 23.3
2017-Jul-25 01:49 260 0 23.3
2017-Jul-25 01:44 261 0 23.3
2017-Jul-25 01:39 274 1 23.3
2017-Jul-25 01:34 260 1 23.3
2017-Jul-25 01:29 305 0 22.8
2017-Jul-25 01:24 309 0 22.8
2017-Jul-25 01:19 291 1 22.8
2017-Jul-25 01:14 078 0 22.8
2017-Jul-25 01:09 148 0 23.3
2017-Jul-25 01:04 086 0 23.3
2017-Jul-25 00:59 100 0 23.3
2017-Jul-25 00:54 030 0 23.3
2017-Jul-25 00:49 359 23.3
2017-Jul-25 00:44 020 0 23.3
2017-Jul-25 00:39 020 1 23.3
2017-Jul-25 00:34 342 0 23.3
2017-Jul-25 00:29 333 0 23.3
2017-Jul-25 00:24 059 1 23.3
2017-Jul-25 00:19 357 0 23.3
2017-Jul-25 00:14 357 0 23.3
2017-Jul-25 00:09 001 0 23.3
2017-Jul-25 00:04 020 23.3
2017-Jul-24 23:59 008 0 23.3
2017-Jul-24 23:54 337 0 23.3
2017-Jul-24 23:49 013 0 23.3
2017-Jul-24 23:44 350 0 23.3
2017-Jul-24 23:39 352 0 23.3
2017-Jul-24 23:34 354 0 23.9
2017-Jul-24 23:29 357 0 23.9
2017-Jul-24 23:24 360 0 23.9
2017-Jul-24 23:19 010 0 23.9
2017-Jul-24 23:14 010 23.9
2017-Jul-24 23:09 010 23.9
2017-Jul-24 23:04 010 23.9
2017-Jul-24 22:59 010 23.9
2017-Jul-24 22:54 011 23.9
2017-Jul-24 22:49 011 23.9
2017-Jul-24 22:44 085 23.9
2017-Jul-24 22:39 086 0 23.9
2017-Jul-24 22:34 083 0 24.4
2017-Jul-24 22:29 079 0 24.4
2017-Jul-24 22:24 086 1 24.4
2017-Jul-24 22:19 065 0 24.4
2017-Jul-24 22:14 072 1 24.4
2017-Jul-24 22:09 073 2 24.4
2017-Jul-24 22:04 093 1 24.4
2017-Jul-24 21:59 068 0 24.4
2017-Jul-24 21:54 072 0 24.4
2017-Jul-24 21:49 042 0 24.4
2017-Jul-24 21:44 025 25.0
2017-Jul-24 21:39 025 25.0
2017-Jul-24 21:34 088 25.0
2017-Jul-24 21:29 068 0 25.0
2017-Jul-24 21:24 075 1 25.0
2017-Jul-24 21:19 064 1 25.0
2017-Jul-24 21:14 069 1 25.0
2017-Jul-24 21:09 095 0 25.0
2017-Jul-24 21:04 079 0 25.0
2017-Jul-24 20:59 058 0 25.0
2017-Jul-24 20:54 082 0 25.0
2017-Jul-24 20:49 051 1 25.6
2017-Jul-24 20:44 082 1 25.6
2017-Jul-24 20:39 083 2 25.6
2017-Jul-24 20:34 071 2 25.6
2017-Jul-24 20:29 088 1 25.6
2017-Jul-24 20:24 071 1 25.6
2017-Jul-24 20:19 086 0 25.6
2017-Jul-24 20:14 031 25.6
2017-Jul-24 20:09 061 25.6
2017-Jul-24 20:04 061 26.1
2017-Jul-24 19:59 061 26.1
2017-Jul-24 19:54 061 0 26.1
2017-Jul-24 19:49 061 1 26.1
2017-Jul-24 19:44 079 1 26.1
2017-Jul-24 19:39 031 1 26.1
2017-Jul-24 19:34 109 2 26.1
2017-Jul-24 19:29 062 1 26.1
2017-Jul-24 19:24 114 1 26.1
2017-Jul-24 19:19 131 2 26.1
2017-Jul-24 19:14 113 2 26.1
2017-Jul-24 19:09 106 4 26.1
2017-Jul-24 19:04 162 3 26.1
2017-Jul-24 18:59 114 3 26.1
2017-Jul-24 18:54 140 5 26.1
2017-Jul-24 18:49 102 5 26.7
2017-Jul-24 18:44 110 5 26.7
2017-Jul-24 18:34 127 4 26.7
2017-Jul-24 18:29 116 4 27.2
2017-Jul-24 18:24 119 5 27.2
2017-Jul-24 18:19 109 5 27.2
2017-Jul-24 18:14 167 4 27.2
2017-Jul-24 18:09 131 4 27.2
2017-Jul-24 18:04 155 4 27.2
2017-Jul-24 17:59 119 5 27.2
2017-Jul-24 17:54 100 5 27.2
2017-Jul-24 17:49 167 5 27.2
2017-Jul-24 17:44 134 6 27.2
2017-Jul-24 17:39 127 6 27.2
2017-Jul-24 17:34 145 6 27.8
2017-Jul-24 17:29 186 6 27.8
2017-Jul-24 17:24 116 7 27.8
2017-Jul-24 17:19 147 6 27.8
2017-Jul-24 17:14 107 6 27.8
2017-Jul-24 17:09 086 6 27.8
2017-Jul-24 17:04 126 6 27.8
2017-Jul-24 16:59 117 7 27.8
2017-Jul-24 16:54 121 7 28.3
2017-Jul-24 16:49 113 7 28.3
2017-Jul-24 16:44 104 8 28.3
2017-Jul-24 16:39 141 9 28.3
2017-Jul-24 16:34 176 8 28.9
2017-Jul-24 16:29 116 6 29.4
2017-Jul-24 16:24 097 6 30.0
2017-Jul-24 16:19 121 6 30.6
2017-Jul-24 16:14 119 6 31.7
2017-Jul-24 16:09 126 6 33.3
2017-Jul-24 16:04 210 6 33.9
2017-Jul-24 15:59 288 6 33.9
2017-Jul-24 15:54 289 7 33.9
2017-Jul-24 15:49 274 8 33.9
2017-Jul-24 15:44 275 7 33.9
2017-Jul-24 15:39 291 7 33.9
2017-Jul-24 15:34 277 9 33.3
2017-Jul-24 15:29 285 8 33.3
2017-Jul-24 15:24 270 8 33.9
2017-Jul-24 15:19 251 8 33.3
2017-Jul-24 15:14 265 7 33.9
2017-Jul-24 15:09 278 6 33.9
2017-Jul-24 15:04 281 6 33.9
2017-Jul-24 14:59 233 8 33.3
2017-Jul-24 14:54 280 7 33.9
2017-Jul-24 14:49 292 6 33.9
2017-Jul-24 14:44 270 7 33.3
2017-Jul-24 14:39 287 7 33.3
2017-Jul-24 14:24 247 6 31.7
2017-Jul-24 14:19 264 7 31.1
2017-Jul-24 14:14 278 7 30.6
2017-Jul-24 14:09 268 7 30.6
2017-Jul-24 14:04 215 6 30.6
2017-Jul-24 13:59 241 7 30.0
2017-Jul-24 13:54 216 7 30.0
2017-Jul-24 13:49 250 6 30.0
2017-Jul-24 13:44 217 7 30.0
2017-Jul-24 13:39 246 7 30.0
2017-Jul-24 13:34 277 8 30.6
2017-Jul-24 13:29 234 8 31.1
2017-Jul-24 13:24 254 6 31.7
2017-Jul-24 13:19 261 6 30.0
2017-Jul-24 13:14 227 6 30.0
2017-Jul-24 13:09 274 6 30.0
2017-Jul-24 13:04 281 6 30.6
2017-Jul-24 12:59 282 6 30.6
2017-Jul-24 12:54 274 6 30.6
2017-Jul-24 12:49 289 6 30.0
2017-Jul-24 12:44 224 7 30.0
2017-Jul-24 12:39 264 8 30.0
2017-Jul-24 12:34 240 6 30.0
2017-Jul-24 12:29 289 6 30.6
2017-Jul-24 12:24 257 6 30.6
2017-Jul-24 12:19 264 5 30.0
2017-Jul-24 12:14 229 5 30.0
2017-Jul-24 12:09 280 5 29.4
2017-Jul-24 12:04 267 4 29.4
2017-Jul-24 11:59 217 4 29.4
2017-Jul-24 11:54 229 5 28.9
2017-Jul-24 11:49 223 5 28.9
2017-Jul-24 11:44 181 5 28.3
2017-Jul-24 11:39 185 5 27.8
2017-Jul-24 11:34 158 5 27.8
2017-Jul-24 11:29 164 5 27.8
2017-Jul-24 11:24 141 5 27.8
2017-Jul-24 11:19 155 5 27.2
2017-Jul-24 11:14 169 4 27.8
2017-Jul-24 11:09 160 3 27.8
2017-Jul-24 11:04 184 3 27.2
2017-Jul-24 10:59 241 4 27.2
2017-Jul-24 10:54 138 4 26.7
2017-Jul-24 10:49 172 4 26.7
2017-Jul-24 10:44 152 3 26.7
2017-Jul-24 10:39 237 4 26.1
2017-Jul-24 10:34 161 4 26.1
2017-Jul-24 10:29 161 4 26.1
2017-Jul-24 10:24 112 4 26.7
2017-Jul-24 10:19 161 3 26.7
2017-Jul-24 10:14 161 2 26.7
2017-Jul-24 10:09 203 3 26.7
2017-Jul-24 10:04 212 3 26.7
2017-Jul-24 09:59 232 3 26.7
2017-Jul-24 09:54 216 3 26.7
2017-Jul-24 09:49 240 3 26.7
2017-Jul-24 09:44 236 3 26.7
2017-Jul-24 09:39 215 2 27.2
2017-Jul-24 09:34 210 1 27.2
2017-Jul-24 09:29 198 1 26.7
2017-Jul-24 09:24 164 1 26.7
2017-Jul-24 09:19 161 2 26.1
2017-Jul-24 09:14 184 3 26.1
2017-Jul-24 09:09 186 2 26.7
2017-Jul-24 09:04 161 2 26.1
2017-Jul-24 08:59 200 2 26.7
2017-Jul-24 08:54 205 1 26.7
2017-Jul-24 08:49 161 1 26.7
2017-Jul-24 08:44 155 1 26.1
2017-Jul-24 08:39 184 1 26.1
2017-Jul-24 08:34 127 0 26.1
2017-Jul-24 08:29 112 0 26.1
2017-Jul-24 08:24 112 1 26.1
2017-Jul-24 08:19 086 1 25.6
2017-Jul-24 08:14 085 1 25.6
2017-Jul-24 08:09 079 1 25.0
2017-Jul-24 08:04 097 1 25.0
2017-Jul-24 07:59 114 2 25.0
2017-Jul-24 07:54 080 1 25.0
2017-Jul-24 07:49 107 1 25.0
2017-Jul-24 07:44 080 1 24.4
2017-Jul-24 07:39 059 1 24.4
2017-Jul-24 07:34 080 1 24.4
2017-Jul-24 07:29 056 1 23.9
2017-Jul-24 07:24 069 2 23.9
2017-Jul-24 07:19 083 2 23.3
2017-Jul-24 07:14 116 3 23.3
2017-Jul-24 07:09 089 3 23.3
2017-Jul-24 07:04 102 3 23.3
2017-Jul-24 06:59 089 3 22.8
2017-Jul-24 06:54 055 2 22.8
2017-Jul-24 06:49 089 3 22.2
2017-Jul-24 06:44 092 3 21.7
2017-Jul-24 06:39 065 2 21.7
2017-Jul-24 06:34 099 1 21.7
2017-Jul-24 06:29 106 1 21.7
2017-Jul-24 06:24 064 1 21.7
2017-Jul-24 06:19 085 1 21.1
2017-Jul-24 06:14 072 1 21.1
2017-Jul-24 06:09 082 2 21.1
2017-Jul-24 06:04 035 2 20.6